Location: Arroyo Retuerta
(40.5469°N, 4.3534°W)
Time: 06:01:17
(UTC+00:00)

NOSS 3-4 (C) - Pass Details

Date: 01 June 2020
Orbit: 893 x 1319 km, 63.4° (Epoch: 02 July)

Event Time Altitude Azimuth Distance (km) Brightness Sun altitude
Exits shadow 23:24:07 33° 239° (WSW) 1,486 4.3 -26.1°
Maximum altitude 23:26:48 62° 308° (NW) 1,027 3.7 -26.2°
Drops below altitude 10° 23:33:01 10° 29° (NNE) 2,717 6.4 -26.5°
Sets 23:35:44 0° 33° (NNE) 3,723 7.2 -26.6°
